Date String (YYYY-MM-DD hh:mm:ss) UTC,Instrument flags,Ambient pressure (hPa),Sample flow (lpm),Bypass flow (lpm),Sample temperature (°C),Ambient temperature (°C),ASC tube jacket temperature (°C),LED temperature (°C),Box temperature (°C),Sample RH (%),Span deviation,Mass concentration (μg/m³),Mass concentration (μg/m³),Mass concentration (μg/m³)
DateTimeUTC,F1_M11,P_M11,Q1_M11,Q2_M11,T1_M11,T2_M11,T3_M11,T4_M11,T5_M11,U1_M11,ZSPAN_M11,X0_M11,X2_M11,X1_M11
2021-11-13 18:00:00,,0827.4,4.99,0.00,26.0,25.1,00.0,35.0,27.8,12.6,0000.0,0003.26,0000.50,0000.34
2021-11-13 18:01:00,,0827.4,4.99,0.00,26.1,25.1,00.0,35.0,27.8,12.6,0000.0,0003.18,0000.48,0000.35
2021-11-13 18:02:00,,0827.4,5.01,0.00,26.1,25.1,00.0,35.0,27.8,12.6,0000.0,0003.15,0000.46,0000.34
2021-11-13 18:03:00,,0827.4,5.00,0.00,26.1,25.1,00.0,35.0,27.9,12.6,0000.0,0003.01,0000.46,0000.34
2021-11-13 18:04:00,,0827.3,4.99,0.00,26.1,25.1,00.0,35.0,27.8,12.6,0000.0,0002.86,0000.49,0000.35
2021-11-13 18:05:00,,0827.2,5.00,0.00,26.1,25.1,00.0,35.0,27.9,12.6,0000.0,0002.89,0000.50,0000.35
2021-11-13 18:06:00,,0827.2,5.00,0.00,26.1,25.2,00.0,35.0,27.8,12.6,0000.0,0002.47,0000.50,0000.35
2021-11-13 18:07:00,,0827.3,4.99,0.00,26.1,25.2,00.0,35.0,27.8,12.7,0000.0,0001.70,0000.52,0000.35
2021-11-13 18:08:00,,0827.3,5.00,0.00,26.1,25.2,00.0,35.1,27.9,12.7,0000.0,0001.71,0000.52,0000.35
2021-11-13 18:09:00,,0827.3,5.00,0.00,26.1,25.2,00.0,35.1,27.9,12.7,0000.0,0001.71,0000.53,0000.36
2021-11-13 18:10:00,,0827.3,5.00,0.00,26.1,25.2,00.0,35.1,27.9,12.7,0000.0,0001.54,0000.52,0000.36
2021-11-13 18:11:00,,0827.3,4.99,0.00,26.1,25.3,00.0,35.1,27.9,12.8,0000.0,0001.11,0000.53,0000.37
2021-11-13 18:12:00,,0827.3,5.00,0.00,26.1,25.3,00.0,35.1,28.0,13.0,0000.0,0001.28,0000.54,0000.37
2021-11-13 18:13:00,,0827.2,5.00,0.00,26.1,25.3,00.0,35.1,27.9,13.0,0000.0,0001.29,0000.54,0000.37
2021-11-13 18:14:00,,0827.1,5.01,0.00,26.1,25.3,00.0,35.1,27.9,13.0,0000.0,0001.37,0000.53,0000.37
2021-11-13 18:15:00,,0827.3,4.98,0.00,26.1,25.3,00.0,35.1,27.8,12.9,0000.0,0001.94,0000.50,0000.36
2021-11-13 18:16:00,,0827.1,5.02,0.00,26.1,25.3,00.0,35.1,27.8,12.8,0000.0,0001.87,0000.48,0000.35
2021-11-13 18:17:00,,0827.2,4.99,0.00,26.1,25.2,00.0,35.1,27.8,12.8,0000.0,0001.82,0000.46,0000.35
2021-11-13 18:18:00,,0827.1,5.01,0.00,26.1,25.3,00.0,35.1,27.9,12.8,0000.0,0001.76,0000.45,0000.35
2021-11-13 18:19:00,,0827.1,5.00,0.00,26.1,25.3,00.0,35.1,27.9,12.8,0000.0,0001.66,0000.42,0000.35
2021-11-13 18:20:00,,0827.2,4.98,0.00,26.1,25.3,00.0,35.1,27.9,12.8,0000.0,0001.71,0000.44,0000.35
2021-11-13 18:21:00,,0827.2,5.01,0.00,26.1,25.3,00.0,35.1,27.9,12.8,0000.0,0001.73,0000.44,0000.34
2021-11-13 18:22:00,,0826.8,4.99,0.00,26.1,25.3,00.0,35.1,27.9,12.8,0000.0,0001.51,0000.42,0000.33
2021-11-13 18:23:00,,0826.7,5.00,0.00,26.2,25.4,00.0,35.1,28.0,12.8,0000.0,0001.32,0000.39,0000.32
2021-11-13 18:24:00,,0826.7,5.01,0.00,26.2,25.4,00.0,35.1,27.9,12.7,0000.0,0001.38,0000.40,0000.32
2021-11-13 18:25:00,,0826.9,5.00,0.00,26.2,25.4,00.0,35.1,27.9,12.7,0000.0,0001.32,0000.40,0000.31
2021-11-13 18:26:00,,0826.7,5.00,0.00,26.2,25.4,00.0,35.1,28.0,12.8,0000.0,0000.70,0000.42,0000.31
2021-11-13 18:27:00,,0826.7,5.00,0.00,26.2,25.3,00.0,35.1,27.9,12.8,0000.0,0000.76,0000.45,0000.31
2021-11-13 18:28:00,,0826.7,5.01,0.00,26.2,25.4,00.0,35.1,28.0,12.9,0000.0,0000.92,0000.46,0000.31
2021-11-13 18:29:00,,0826.7,4.98,0.00,26.2,25.4,00.0,35.1,28.0,12.8,0000.0,0001.08,0000.47,0000.31
2021-11-13 18:30:00,,0826.7,5.01,0.00,26.2,25.3,00.0,35.2,28.0,12.7,0000.0,0001.12,0000.48,0000.30
2021-11-13 18:31:00,,0826.6,4.99,0.00,26.2,25.4,00.0,35.2,28.0,12.8,0000.0,0001.06,0000.45,0000.30
2021-11-13 18:32:00,,0826.6,5.00,0.00,26.2,25.4,00.0,35.2,28.0,12.7,0000.0,0001.05,0000.45,0000.30
2021-11-13 18:33:00,,0826.6,5.00,0.00,26.3,25.4,00.0,35.2,28.0,12.8,0000.0,0001.15,0000.46,0000.30
2021-11-13 18:34:00,,0826.5,4.99,0.00,26.3,25.4,00.0,35.2,28.0,12.7,0000.0,0001.19,0000.46,0000.30
2021-11-13 18:35:00,,0826.5,5.00,0.00,26.3,25.4,00.0,35.2,28.0,12.8,0000.0,0001.12,0000.45,0000.30
2021-11-13 18:36:00,,0826.5,5.01,0.00,26.3,25.4,00.0,35.2,28.1,12.8,0000.0,0001.15,0000.49,0000.30
2021-11-13 18:37:00,,0826.5,4.99,0.00,26.3,25.4,00.0,35.2,28.1,12.8,0000.0,0001.18,0000.49,0000.30
2021-11-13 18:38:00,,0826.5,5.00,0.00,26.3,25.4,00.0,35.2,28.1,12.8,0000.0,0001.13,0000.46,0000.30
2021-11-13 18:39:00,,0826.5,5.01,0.00,26.3,25.5,00.0,35.3,28.1,12.9,0000.0,0000.99,0000.45,0000.30
2021-11-13 18:40:00,,0826.5,4.99,0.00,26.3,25.5,00.0,35.3,28.1,12.9,0000.0,0000.79,0000.43,0000.30
2021-11-13 18:41:00,,0826.5,5.02,0.00,26.3,25.4,00.0,35.3,28.1,12.9,0000.0,0000.86,0000.44,0000.31
2021-11-13 18:42:00,,0826.5,5.00,0.00,26.3,25.4,00.0,35.3,28.1,12.7,0000.0,0000.94,0000.45,0000.31
2021-11-13 18:43:00,,0826.5,4.99,0.00,26.3,25.4,00.0,35.3,28.1,12.6,0000.0,0001.03,0000.46,0000.30
2021-11-13 18:44:00,,0826.5,5.00,0.00,26.3,25.4,00.0,35.3,28.1,12.3,0000.0,0000.99,0000.45,0000.30
2021-11-13 18:45:00,,0826.5,5.00,0.00,26.4,25.4,00.0,35.3,28.1,12.5,0000.0,0000.96,0000.47,0000.31
2021-11-13 18:46:00,,0826.5,4.99,0.00,26.4,25.4,00.0,35.3,28.1,12.8,0000.0,0000.96,0000.48,0000.31
2021-11-13 18:47:00,,0826.5,5.01,0.00,26.4,25.5,00.0,35.3,28.1,12.8,0000.0,0001.41,0000.46,0000.32
2021-11-13 18:48:00,,0826.5,5.00,0.00,26.4,25.5,00.0,35.3,28.1,12.7,0000.0,0002.07,0000.45,0000.32
2021-11-13 18:49:00,,0826.5,4.99,0.00,26.4,25.5,00.0,35.3,28.1,12.6,0000.0,0002.08,0000.46,0000.32
2021-11-13 18:50:00,,0826.5,5.00,0.00,26.4,25.5,00.0,35.3,28.1,12.6,0000.0,0002.10,0000.47,0000.32
2021-11-13 18:51:00,,0826.3,5.02,0.00,26.4,25.5,00.0,35.3,28.1,12.6,0000.0,0002.19,0000.49,0000.32
2021-11-13 18:52:00,,0826.3,5.00,0.00,26.4,25.5,00.0,35.3,28.1,12.5,0000.0,0002.21,0000.50,0000.32
2021-11-13 18:53:00,,0826.2,5.01,0.00,26.4,25.5,00.0,35.4,28.1,12.6,0000.0,0002.14,0000.50,0000.32
2021-11-13 18:54:00,,0826.1,4.99,0.00,26.4,25.5,00.0,35.4,28.2,12.6,0000.0,0002.04,0000.49,0000.33
2021-11-13 18:55:00,,0826.0,5.00,0.00,26.4,25.5,00.0,35.4,28.2,12.6,0000.0,0002.06,0000.49,0000.34
2021-11-13 18:56:00,,0826.1,5.01,0.00,26.4,25.6,00.0,35.4,28.3,12.6,0000.0,0004.04,0000.50,0000.34
2021-11-13 18:57:00,,0826.0,4.99,0.00,26.4,25.6,00.0,35.4,28.2,12.6,0000.0,0004.89,0000.55,0000.35
2021-11-13 18:58:00,,0826.0,5.01,0.00,26.4,25.6,00.0,35.4,28.2,12.6,0000.0,0004.65,0000.54,0000.35
2021-11-13 18:59:00,,0826.1,4.98,0.00,26.4,25.6,00.0,35.4,28.2,12.6,0000.0,0003.81,0000.54,0000.36
